When you browse on this site, cookies collect data to enhance your experience and personalize the content and advertising you see.
Visit our Privacy Policy to learn more. By continuing to use the site, you agree to this use of cookies and data.
  • In Hungary
  • List of Countries
  • For 7 days
  • Water Temperature
  • Weather Map
  • News
  • Weather Widgets
  • user-avatar
    Login

    Hourly Weather Afzalpur

    Today, 7 December, Saturday

    Time Temperature Precipitation Wind Pressure Humidity
    00:00 +22°C° 0 mm 3 mps 725 mmHg 69%
    01:00 +21°C° 0 mm 3 mps 725 mmHg 72%
    02:00 +21°C° 0 mm 3 mps 724 mmHg 75%
    03:00 +21°C° 0 mm 3 mps 724 mmHg 77%
    04:00 +20°C° 0 mm 3 mps 724 mmHg 79%
    05:00 +20°C° 0 mm 2 mps 724 mmHg 80%
    06:00 +21°C° 0 mm 3 mps 725 mmHg 77%
    07:00 +22°C° 0 mm 3 mps 725 mmHg 74%
    08:00 +22°C° 0 mm 3 mps 726 mmHg 71%
    09:00 +25°C° 0 mm 3 mps 725 mmHg 64%
    10:00 +26°C° 0 mm 4 mps 725 mmHg 57%
    11:00 +28°C° 0 mm 4 mps 725 mmHg 49%
    12:00 +29°C° 0 mm 4 mps 725 mmHg 46%
    13:00 +29°C° 0 mm 4 mps 724 mmHg 43%
    14:00 +30°C° 0 mm 4 mps 723 mmHg 39%
    15:00 +30°C° 0 mm 4 mps 723 mmHg 41%
    16:00 +29°C° 0 mm 3 mps 723 mmHg 42%
    17:00 +28°C° 0 mm 3 mps 724 mmHg 44%
    18:00 +27°C° 0 mm 3 mps 724 mmHg 47%
    19:00 +26°C° 0 mm 3 mps 724 mmHg 50%
    20:00 +25°C° 0 mm 3 mps 725 mmHg 53%
    21:00 +25°C° 0 mm 3 mps 725 mmHg 57%
    22:00 +24°C° 0 mm 3 mps 725 mmHg 61%
    23:00 +24°C° 0 mm 3 mps 725 mmHg 64%

    Tomorrow, 8 December, Sunday

    Time Temperature Precipitation Wind Pressure Humidity
    00:00 +22°C° 0 mm 3 mps 725 mmHg 68%
    01:00 +22°C° 0 mm 3 mps 724 mmHg 71%
    02:00 +21°C° 0 mm 3 mps 724 mmHg 75%
    03:00 +21°C° 0 mm 3 mps 724 mmHg 77%
    04:00 +21°C° 0 mm 3 mps 724 mmHg 80%
    05:00 +21°C° 0 mm 2 mps 724 mmHg 83%
    06:00 +22°C° 0 mm 3 mps 725 mmHg 80%
    07:00 +22°C° 0 mm 4 mps 725 mmHg 76%
    08:00 +23°C° 0 mm 4 mps 726 mmHg 73%
    09:00 +26°C° 0 mm 4 mps 726 mmHg 68%
    10:00 +27°C° 0 mm 4 mps 726 mmHg 62%
    11:00 +28°C° 0 mm 4 mps 725 mmHg 57%
    12:00 +29°C° 0 mm 4 mps 725 mmHg 55%
    13:00 +29°C° 0 mm 3 mps 724 mmHg 54%
    14:00 +29°C° 0 mm 3 mps 723 mmHg 53%
    15:00 +29°C° 0 mm 3 mps 724 mmHg 55%
    16:00 +29°C° 0 mm 3 mps 724 mmHg 56%
    17:00 +28°C° 0 mm 3 mps 724 mmHg 58%
    18:00 +28°C° 0 mm 2 mps 724 mmHg 61%
    19:00 +27°C° 0 mm 2 mps 725 mmHg 63%
    20:00 +26°C° 0 mm 2 mps 725 mmHg 66%
    21:00 +26°C° 0.1 mm 2 mps 725 mmHg 68%
    22:00 +26°C° 0.1 mm 2 mps 725 mmHg 70%
    23:00 +25°C° 0.1 mm 3 mps 725 mmHg 72%

    Day after tomorrow, 9 December, Monday

    Time Temperature Precipitation Wind Pressure Humidity
    00:00 +25°C° 0 mm 3 mps 725 mmHg 74%
    01:00 +24°C° 0 mm 3 mps 725 mmHg 76%
    02:00 +24°C° 0 mm 3 mps 724 mmHg 78%
    03:00 +22°C° 0 mm 3 mps 724 mmHg 81%
    04:00 +22°C° 0 mm 3 mps 724 mmHg 84%
    05:00 +21°C° 0 mm 2 mps 724 mmHg 87%
    06:00 +22°C° 0 mm 3 mps 725 mmHg 82%
    07:00 +23°C° 0 mm 4 mps 725 mmHg 78%
    08:00 +23°C° 0 mm 4 mps 726 mmHg 73%
    09:00 +26°C° 0 mm 4 mps 726 mmHg 68%
    10:00 +27°C° 0 mm 4 mps 725 mmHg 62%
    11:00 +28°C° 0 mm 4 mps 725 mmHg 57%
    12:00 +29°C° 0 mm 4 mps 725 mmHg 55%
    13:00 +29°C° 0 mm 4 mps 724 mmHg 53%
    14:00 +29°C° 0 mm 3 mps 724 mmHg 51%
    15:00 +29°C° 0 mm 3 mps 723 mmHg 52%
    16:00 +29°C° 0 mm 3 mps 723 mmHg 54%
    17:00 +28°C° 0 mm 3 mps 723 mmHg 55%
    18:00 +28°C° 0 mm 3 mps 724 mmHg 56%
    19:00 +27°C° 0 mm 2 mps 724 mmHg 57%
    20:00 +27°C° 0 mm 2 mps 725 mmHg 58%
    21:00 +26°C° 0 mm 3 mps 725 mmHg 61%
    22:00 +25°C° 0 mm 3 mps 724 mmHg 64%
    23:00 +25°C° 0 mm 3 mps 724 mmHg 67%

    10 December, Tuesday

    Time Temperature Precipitation Wind Pressure Humidity
    00:00 +24°C° 0 mm 3 mps 724 mmHg 70%
    01:00 +24°C° 0 mm 3 mps 724 mmHg 72%
    02:00 +22°C° 0 mm 3 mps 723 mmHg 75%
    03:00 +22°C° 0 mm 3 mps 723 mmHg 76%
    04:00 +21°C° 0 mm 3 mps 723 mmHg 78%
    05:00 +21°C° 0 mm 3 mps 723 mmHg 79%
    06:00 +22°C° 0 mm 3 mps 724 mmHg 77%
    07:00 +22°C° 0 mm 3 mps 724 mmHg 76%
    08:00 +24°C° 0 mm 3 mps 725 mmHg 74%
    09:00 +25°C° 0 mm 3 mps 725 mmHg 67%
    10:00 +27°C° 0 mm 3 mps 725 mmHg 61%
    11:00 +28°C° 0 mm 3 mps 725 mmHg 54%
    12:00 +29°C° 0 mm 3 mps 724 mmHg 50%
    13:00 +30°C° 0 mm 3 mps 723 mmHg 46%
    14:00 +30°C° 0 mm 3 mps 722 mmHg 42%
    15:00 +30°C° 0 mm 3 mps 722 mmHg 43%
    16:00 +30°C° 0 mm 3 mps 722 mmHg 45%
    17:00 +29°C° 0 mm 3 mps 722 mmHg 46%
    18:00 +28°C° 0 mm 3 mps 722 mmHg 48%
    19:00 +27°C° 0 mm 3 mps 723 mmHg 49%
    20:00 +26°C° 0 mm 3 mps 723 mmHg 51%
    21:00 +26°C° 0 mm 3 mps 723 mmHg 55%
    22:00 +25°C° 0 mm 3 mps 723 mmHg 60%
    23:00 +24°C° 0 mm 3 mps 723 mmHg 64%

    11 December, Wednesday

    Time Temperature Precipitation Wind Pressure Humidity
    00:00 +24°C° 0 mm 3 mps 723 mmHg 67%
    01:00 +22°C° 0 mm 3 mps 722 mmHg 70%
    02:00 +23°C° 0 mm 2 mps 722 mmHg 73%
    03:00 +21°C° 0 mm 2 mps 722 mmHg 76%
    04:00 +21°C° 0 mm 2 mps 722 mmHg 79%
    05:00 +20°C° 0 mm 2 mps 722 mmHg 81%
    06:00 +21°C° 0 mm 2 mps 723 mmHg 79%
    07:00 +23°C° 0 mm 2 mps 724 mmHg 77%
    08:00 +24°C° 0 mm 3 mps 724 mmHg 75%
    09:00 +25°C° 0 mm 3 mps 724 mmHg 68%
    10:00 +27°C° 0 mm 3 mps 724 mmHg 61%
    11:00 +28°C° 0 mm 3 mps 724 mmHg 54%
    12:00 +29°C° 0 mm 3 mps 723 mmHg 49%
    13:00 +30°C° 0 mm 3 mps 722 mmHg 45%
    14:00 +30°C° 0 mm 3 mps 722 mmHg 41%
    15:00 +30°C° 0 mm 3 mps 721 mmHg 41%
    16:00 +29°C° 0 mm 3 mps 721 mmHg 42%
    17:00 +29°C° 0 mm 3 mps 721 mmHg 43%
    18:00 +28°C° 0 mm 3 mps 721 mmHg 45%
    19:00 +27°C° 0 mm 3 mps 722 mmHg 47%
    20:00 +26°C° 0 mm 2 mps 722 mmHg 49%
    21:00 +26°C° 0 mm 3 mps 722 mmHg 50%
    22:00 +25°C° 0 mm 3 mps 722 mmHg 52%
    23:00 +25°C° 0 mm 3 mps 723 mmHg 54%

    12 December, Thursday

    Time Temperature Precipitation Wind Pressure Humidity
    00:00 +24°C° 0 mm 3 mps 722 mmHg 57%
    01:00 +22°C° 0 mm 3 mps 722 mmHg 60%
    02:00 +22°C° 0 mm 4 mps 722 mmHg 63%
    03:00 +21°C° 0 mm 4 mps 722 mmHg 69%
    04:00 +21°C° 0 mm 3 mps 722 mmHg 75%
    05:00 +20°C° 0 mm 3 mps 722 mmHg 81%
    06:00 +21°C° 0 mm 4 mps 723 mmHg 79%
    07:00 +22°C° 0 mm 4 mps 723 mmHg 78%
    08:00 +23°C° 0 mm 5 mps 724 mmHg 77%
    09:00 +25°C° 0 mm 4 mps 724 mmHg 68%
    10:00 +27°C° 0 mm 4 mps 724 mmHg 60%
    11:00 +29°C° 0 mm 4 mps 724 mmHg 51%
    12:00 +29°C° 0 mm 3 mps 723 mmHg 48%
    13:00 +30°C° 0 mm 3 mps 722 mmHg 44%
    14:00 +31°C° 0 mm 3 mps 721 mmHg 41%
    15:00 +30°C° 0 mm 3 mps 721 mmHg 42%
    16:00 +30°C° 0 mm 3 mps 721 mmHg 43%
    17:00 +30°C° 0 mm 2 mps 721 mmHg 44%
    18:00 +29°C° 0 mm 3 mps 722 mmHg 45%
    19:00 +28°C° 0 mm 3 mps 723 mmHg 46%
    20:00 +28°C° 0 mm 3 mps 723 mmHg 47%
    21:00 +27°C° 0 mm 4 mps 723 mmHg 50%
    22:00 +26°C° 0 mm 4 mps 723 mmHg 53%
    23:00 +25°C° 0 mm 5 mps 723 mmHg 57%
    Show more